Regional Weather Roundup
Issued by NWS

Home | Current Version | Previous Version | Graphics & Text | Print | Product List | Glossary On
Versions: 1 2 3 4 5 6 7 8 9 10 11 12 13 14 15 16 17 18 19 20 21 22 23 24 25 26 27 28 29 30 31 32 33 34 35 36 37 38 39 40 41 42 43 44 45 46 47 48 49 50
000
ASUS43 KFSD 210102
RWRSD

WEATHER ROUNDUP FOR SOUTH DAKOTA
NATIONAL WEATHER SERVICE SIOUX FALLS SD
800 PM CDT MON APR 20 2015

NOTE: "FAIR" INDICATES FEW OR NO CLOUDS BELOW 12,000 FEET WITH NO
SIGNIFICANT WEATHER AND/OR OBSTRUCTIONS TO VISIBILITY.


SDZ001>005-009-010-012>017-210200-
NORTHWEST AND NORTH CENTRAL SOUTH DAKOTA

CITY           SKY/WX    TMP DP  RH WIND       PRES   REMARKS
BUFFALO          N/A     47  20  34 N21       29.78S
FAITH            N/A     48  16  27 NW18      29.81S
MOBRIDGE       CLEAR     50   5  16 N23G32    29.73S
$$

SDZ012>016-024>037-041>051-057-063-072>074-210200-
SOUTHWEST AND SOUTH CENTRAL SOUTH DAKOTA

CITY           SKY/WX    TMP DP  RH WIND       PRES   REMARKS
RAPID CTY ARPT PTCLDY    49  22  34 N15       29.83S
PIERRE         MOCLDY    50  10  20 NW17      29.77R
CUSTER         PTCLDY    43  15  32 NW8G20    29.84S
ELLSWORTH AFB  PTCLDY    50  21  32 N14       29.83R
PHILIP         CLOUDY    51  32  48 NW17      29.82S
PINE RIDGE     CLEAR     50  22  33 N8        29.84R
WINNER         CLOUDY    52  13  21 NW21      29.79R
$$

SDZ004>011-016>023-039-040-210200-
NORTHEAST SOUTH DAKOTA

CITY           SKY/WX    TMP DP  RH WIND       PRES   REMARKS
ABERDEEN       CLEAR     48  12  23 NW23      29.71R
WATERTOWN      CLEAR     42  25  50 NW24G30   29.67R
BROOKINGS      CLEAR     45  25  45 NW21      29.68R
SISSETON         N/A     40  30  67 N18       29.65R
$$

SDZ017-020-022-023-036>040-048>070-210200-
SOUTHEAST SOUTH DAKOTA

CITY           SKY/WX    TMP DP  RH WIND       PRES   REMARKS
SIOUX FALLS    PTCLDY    49   7  18 NW22G30   29.67S
HURON          CLEAR     49   7  18 NW20      29.71R
MITCHELL       CLEAR     51   3  14 NW24G36   29.73R
YANKTON        CLEAR     50   7  17 NW17G25   29.73R
$$

ABBREVIATIONS USED IN REMARKS
   TC - TEMPERATURE IN CELSIUS
  WCI - WIND CHILL INDEX
   HX - HEAT INDEX
  VSB - VISIBILITY



USA.gov is the U.S. government's official web portal to all federal, state and local government web resources and services.